This is the latest recevied weather packets stored in our database for station/object JA0BES-13. If no packets are shown the sender has not sent any weather packets the latest 10 day(s).
| Time | Temp. | Humidity | Pressure | Rain* | Wind** | Luminosity | Snow |
|---|---|---|---|---|---|---|---|
| 1777893268 | 12.78° C | 79% | 1007.4 hPa | 5.59 mm | - | - | - |
| 1777892667 | 13.33° C | 76% | 1007.1 hPa | 5.59 mm | - | - | - |
| 1777891463 | 13.89° C | 75% | 1006.3 hPa | 5.59 mm | - | - | - |
| 1777890863 | 13.89° C | 74% | 1005.8 hPa | 5.59 mm | - | - | - |
| 1777890263 | 14.44° C | 71% | 1005.5 hPa | 5.59 mm | - | - | - |
| 1777889662 | 15° C | 68% | 1005.1 hPa | 5.59 mm | - | - | - |
| 1777889062 | 15.56° C | 63% | 1004.7 hPa | 5.59 mm | - | - | - |
| 1777888462 | 16.11° C | 62% | 1004.6 hPa | 5.59 mm | - | - | - |
| 1777887861 | 16.11° C | 59% | 1004.4 hPa | 5.59 mm | - | - | - |
| 1777887261 | 16.67° C | 58% | 1004.2 hPa | 5.59 mm | - | - | - |
| 1777886660 | 16.67° C | 58% | 1004 hPa | 5.59 mm | - | - | - |
| 1777886060 | 16.67° C | 58% | 1003.9 hPa | 5.59 mm | - | - | - |
| 1777885460 | 16.67° C | 58% | 1003.9 hPa | 5.59 mm | - | - | - |
| 1777884860 | 16.67° C | 57% | 1003.4 hPa | 5.59 mm | - | - | - |
| 1777884259 | 16.67° C | 57% | 1003.2 hPa | 5.59 mm | - | - | - |
| 1777883659 | 17.22° C | 56% | 1003 hPa | 5.59 mm | - | - | - |
| 1777883058 | 17.78° C | 55% | 1002.9 hPa | 5.59 mm | - | - | - |
| 1777882458 | 18.33° C | 53% | 1002.6 hPa | 5.59 mm | - | - | - |
| 1777881858 | 19.44° C | 51% | 1002.5 hPa | 5.59 mm | - | - | - |
| 1777881258 | 20° C | 55% | 1001.8 hPa | 5.59 mm | - | - | - |
| 1777880657 | 20° C | 52% | 1001.7 hPa | 5.59 mm | - | - | - |
| 1777880057 | 20.56° C | 60% | 1001.2 hPa | 5.59 mm | - | - | - |
| 1777879456 | 20.56° C | 61% | 1000.8 hPa | 5.59 mm | - | - | - |
| 1777878856 | 20.56° C | 59% | 1000.3 hPa | 5.59 mm | - | - | - |
| 1777878256 | 20.56° C | 53% | 1000.1 hPa | 5.59 mm | - | - | - |
* Rain since midnight (hover to see other rain measurements)
** Current wind speed in m/s (hover to see current wind gust speed)